Tracking 30918 objects as of 2-Jul-2025
HD Live streaming from Space Station
objects crossing your sky now

CZ-4B DEB

Track CZ-4B DEB now!
10-day predictions


NORAD ID: 29215
Int'l Code: 2002-024F
Perigee: 847.4 km
Apogee: 1,210.9 km
Inclination: 98.8 °
Period: 105.6 minutes
Semi major axis: 7400 km
RCS: 0.0014 m2 (small)
Launch date: May 15, 2002
Source: People's Republic of China (PRC)
Launch site: Taiyaun Space Center, China (TSC)

Note: This is SATELLITE DEBRIS
Your satellite tracking list
Your tracking list is empty




NASA's NSSDC Master Catalog

Two Line Element Set (TLE):
1 29215U 02024F   25182.08943083  .00000176  00000-0  21838-3 0  9999
2 29215  98.7763 234.5777 0245597  93.7176 299.1536 13.63783634132422
Source of the keplerian elements: AFSPC